Location: Ash Swamp
(41.5170°N, 74.6157°W)
Time: 02:03:14
(UTC+00:00)

BREEZE-M DEB (TANK) - Pass Details

Date: 14 July 2020
Orbit: 428 x 13237 km, 46.0° (Epoch: 14 August)

Event Time Altitude Azimuth Distance (km) Brightness Sun altitude
Rises 04:01:02 0° 237° (WSW) 10,672 9.2 -25.2°
Reaches altitude 10° 04:11:28 10° 237° (WSW) 7,424 8.3 -25.7°
Maximum altitude 04:28:29 78° 155° (SSE) 1,326 4.4 -26.3°
Drops below altitude 10° 04:33:14 10° 69° (ENE) 2,260 6.1 -26.5°
Sets 04:34:43 0° 68° (ENE) 2,898 6.7 -26.5°
